Zurück zum Katalog

CHINASAT 1E

AktivKommunikationGEO
NORAD 53813·PAYLOAD·🇨🇳 China

Gestartet Sep 13, 2022 von Wenchang Space Launch Site

Loading…

TLE

AktuellSource: Space-Track

Epoche: Sep 14, 2026, 22:44 UTC

1 53813U 22112A   26257.94765419 -.00000157  00000-0  00000-0 0  9999
2 53813   0.0544 304.1761 0002592 323.1144 149.1925  1.00273588 14744

Verfolge CHINASAT 1E in Echtzeit mit AllMySat

Download on the App Store